Temp_Advection
nan nan nan nan nan nan nan nan nan nan nan nan nan nan nan nan nan nan nan nan nan nan nan nan nan nan nan nan nan nan nan nan nan nan nan nan nan nan nan nan nan nan nan nan nan nan nan nan nan nan nan nan nan nan nan nan nan nan nan nan nan nan nan nan nan nan nan nan nan nan nan nan nan nan
nan -1 -1 -1 -2 -1 -0 -1 -1 -0 -0 -0 0 -0 0 1 1 0 -0 -2 -2 -1 -2 -2 -2 -1 0 0 -0 1 1 -1 -1 -1 0 0 -0 0 1 1 1 1 0 -0 -0 -0 -0 -1 -0 0 0 0 0 0 -0 0 0 -0 -0 -0 -0 0 0 0 0 0 0 0 0 0 0 0 0 nan
nan -1 -1 -1 -1 -1 -1 -1 -1 -0 0 -0 -0 0 1 1 0 1 0 -2 -3 -1 -2 -3 -2 -1 -0 -0 -0 1 1 0 -0 -1 -0 -0 0 1 1 1 0 0 1 -0 -1 -0 -0 -1 -1 -0 0 0 0 0 -0 -0 0 0 -0 -0 -0 0 0 0 0 0 0 0 0 0 0 0 0 nan
nan -1 -1 -1 -1 -1 -1 -1 -1 -1 -0 -0 -1 0 1 1 0 1 1 -1 -4 -2 -1 -2 -2 -1 -1 -0 -0 -0 0 1 2 1 -2 -2 -0 0 1 1 0 0 0 0 -0 -0 -0 -0 -0 -0 0 0 0 0 0 0 -0 -0 -0 -0 -0 -0 -0 0 0 0 0 0 0 0 0 0 0 nan
nan -1 -1 -1 -1 -1 -1 -1 -1 -1 -0 -1 -1 0 1 0 0 0 1 -0 -3 -3 0 -1 -3 -2 -0 -0 -1 -1 -1 -0 2 3 0 -1 -1 -1 0 1 0 -0 -0 -0 0 0 -0 -0 -0 -0 -0 0 0 1 1 0 -0 -0 -0 -0 -0 -0 -0 -0 0 0 0 0 0 0 0 0 0 nan
nan -1 -1 -1 -1 -1 -1 -1 -1 -1 -0 -1 -1 0 0 0 1 0 -0 -0 -2 -3 -1 0 -1 -2 -1 -1 -1 -1 -1 -0 1 2 2 1 -1 -1 -0 0 0 0 -0 -1 -0 0 -0 -0 -0 -1 -1 -0 1 1 1 0 -0 -0 -0 -0 -0 -0 -0 -0 0 0 0 -0 -0 0 0 0 0 nan
nan -1 -1 -1 -1 -1 -1 -1 -1 -1 -1 -0 -1 -1 -0 0 1 0 -0 0 -1 -3 -3 -0 0 -1 -1 -1 -1 -1 -0 0 0 0 1 2 0 -1 -1 -0 0 -0 -1 -0 -0 -0 -0 -0 -0 -1 -1 -0 1 1 1 0 0 0 0 -0 -0 -1 -0 0 0 0 0 -0 -0 -0 0 0 0 nan
nan -0 -1 -1 -1 -1 -1 -2 -1 -1 -1 -1 -0 -1 -0 -0 -0 -1 -0 -0 -0 -2 -2 -1 0 0 0 -0 -0 -0 -1 -0 1 1 1 0 -0 -1 -1 -0 0 -0 -1 -1 -0 -0 0 -0 -0 -0 -0 -0 -0 0 1 1 1 1 0 -0 -0 -1 -0 0 0 0 0 -0 -0 -0 -0 0 -0 nan
nan -0 -1 -1 -1 -2 -1 -1 -2 -1 -1 -1 -1 -1 -1 -0 -1 -1 0 -0 -0 -1 -2 -2 -0 1 1 -0 -0 -0 -1 -1 0 0 -0 -0 -0 -1 -1 -0 0 0 -0 -1 -1 -0 -0 -0 0 0 0 -0 -0 -0 -0 0 0 1 1 0 0 -0 -0 0 0 0 0 0 -0 -0 -0 -0 -0 nan
nan -0 -0 -0 -1 -2 -1 -1 -2 -2 -1 -1 -1 -1 -2 -1 -1 -0 -0 0 0 -0 -2 -2 -1 1 2 0 -1 -0 0 0 -0 -1 -1 -0 -0 -1 -1 -1 -1 0 0 -0 -1 -1 -1 -0 -0 0 1 0 0 0 0 -0 -0 0 0 0 0 0 1 1 0 0 0 -0 -0 -0 -0 -0 -0 nan
nan -0 -0 -1 -1 -2 -0 1 -1 -2 -2 -1 -1 -0 -1 -1 -1 -1 -1 0 0 -0 -1 -1 -1 -0 1 0 -1 -0 1 1 -1 -1 -1 -1 -0 -1 -1 -1 -1 1 1 0 -0 -1 -1 -1 -1 -0 1 1 0 0 0 0 0 0 -0 -0 -0 0 1 0 -0 0 0 0 0 -0 -0 -0 -0 nan
nan 0 -0 -2 -3 -2 -0 1 0 -1 -1 -2 -2 -1 -1 -1 -1 -1 -1 -1 -0 -0 -1 -0 -0 -1 -1 0 0 0 1 0 -2 -2 -0 -0 -1 -1 -1 -1 -0 0 0 0 -0 -0 0 0 -0 -1 -0 0 0 0 0 0 0 0 -0 -0 -0 0 0 -0 -0 -1 -0 0 1 0 -0 -0 -0 nan
nan -0 -0 -2 -4 -3 -1 -0 1 0 -0 -1 -1 -1 -1 -1 -1 -2 -2 -1 -1 -0 -0 -1 -0 -0 -0 0 0 -0 -0 -1 -2 -1 1 -0 -1 -1 -0 -0 -0 -0 0 0 -0 -0 1 1 1 0 -1 -1 -0 0 0 -0 0 0 -0 -1 -0 0 0 0 -0 -1 -1 -0 1 1 0 0 -0 nan
nan -2 -1 -2 -4 -4 -2 -1 -0 -0 -0 -0 -0 -1 -2 -1 -2 -2 -1 -1 -1 -1 -0 -0 -0 -0 -0 -0 -0 -1 -1 -0 -1 0 1 -1 -1 -0 -0 -1 -0 0 0 -0 -0 -0 1 1 0 0 -0 -1 -0 0 -0 -0 -0 0 0 -0 -0 0 0 0 -0 -1 -1 -1 -1 0 1 1 0 nan
nan -4 -4 -2 -2 -3 -2 -2 -2 -1 -0 0 -0 -2 -1 -1 -1 -1 -1 -1 -1 -1 -0 -0 -0 -1 -1 -0 0 -0 -0 0 -0 -0 0 -0 -1 -0 -1 -1 -1 -0 0 1 -1 -1 0 1 -0 -1 -0 0 -0 -0 -1 -1 -0 0 0 0 -0 0 0 0 0 -0 -1 -1 -1 -1 -0 0 1 nan
nan -4 -5 -4 -3 -3 -1 -1 -2 -2 -1 -0 -1 -2 -1 -1 -1 -1 -1 -1 -1 -0 -1 -1 -1 -1 -1 -0 0 -0 -0 0 -1 -0 0 0 -0 -0 -0 -1 -2 -1 1 1 -1 -1 -0 1 0 -1 -1 0 0 -0 -1 -1 -0 1 1 0 -0 0 0 0 0 0 -0 -0 -1 -1 -1 -0 -0 nan
nan -2 -3 -3 -3 -3 -2 -1 -1 -3 -3 -1 -1 -2 -1 -1 -2 -1 -0 -0 0 0 -0 -1 -1 -0 -0 -1 -1 -0 0 0 -0 -0 -0 -0 0 -0 -1 -1 -2 -1 1 1 -1 -1 -1 1 1 -1 -1 -0 -0 -0 -0 -0 0 1 0 0 -0 0 0 -0 0 0 0 0 -0 -0 -0 -1 -1 nan
nan -1 -1 -1 -2 -2 -2 -1 -1 -2 -3 -3 -2 -2 -1 -1 -1 -1 -0 -0 -0 -0 -1 -1 -1 -1 -0 -1 -2 -0 1 1 0 0 -1 -1 0 0 -0 -1 -1 -1 1 1 0 -1 -2 0 1 -1 -1 -0 -0 -1 -1 -0 0 0 0 0 0 0 0 0 0 0 0 0 0 0 0 -0 -1 nan
nan -1 -1 -1 -1 -2 -2 -1 -1 -1 -2 -2 -2 -2 -2 -2 -1 -0 -0 -1 -1 -1 -1 -1 -1 -0 -1 -1 -1 -0 -0 -0 0 0 -0 -0 0 1 0 -0 -1 -2 -0 1 1 -1 -2 0 1 -1 -2 -0 -0 -1 -0 -0 0 -0 -0 0 0 0 0 0 0 0 0 0 0 0 0 0 -0 nan
nan -1 -1 -1 -1 -1 -2 -2 -2 -2 -1 -2 -2 -2 -2 -2 -2 -1 0 -0 -1 -1 -0 -0 -0 -0 -1 -1 -0 -0 -0 -0 -0 -0 0 0 0 0 0 -0 -1 -2 -1 1 2 -0 -2 -1 1 -0 -1 -1 -1 -1 -0 0 0 -0 -0 0 0 -0 -0 0 0 0 0 0 0 0 0 0 0 nan
nan -0 -0 -1 -1 -1 -1 -2 -2 -2 -1 -2 -2 -2 -2 -2 -2 -1 0 0 -0 -0 -0 -0 -0 -0 -1 -1 -1 -0 0 0 0 0 -0 -0 0 0 0 -0 -2 -2 -2 -0 2 1 -2 -2 1 0 -1 -1 -0 -1 -1 -1 -0 -0 -0 0 -0 -0 -0 0 1 0 -0 -0 0 0 0 1 1 nan
nan 0 0 0 -1 -1 -1 -1 -2 -2 -2 -2 -2 -2 -2 -2 -2 -1 -0 -0 -0 -0 -0 -0 -1 -0 -1 -1 -1 -1 -0 -0 1 1 -0 -0 1 0 0 -1 -1 -1 -2 -1 1 1 -2 -2 -0 1 -0 -1 -1 -1 -1 -1 -0 -0 -0 0 -0 -1 -1 0 1 1 -0 -0 -0 0 0 1 0 nan
nan 0 0 0 0 -1 -1 -1 -1 -2 -2 -1 -1 -2 -2 -2 -1 -1 -1 -1 -1 -1 -1 -1 -1 -0 -0 -1 -1 -1 -0 -0 0 0 0 0 1 0 -0 -0 0 -1 -3 -3 1 1 -1 -2 -1 1 2 -1 -2 -2 -1 -1 -0 0 0 0 -0 -0 -1 -0 1 1 0 -0 -0 -0 0 0 0 nan
nan -0 -0 0 0 -0 -1 -1 -1 -1 -1 -1 -1 -1 -2 -2 -2 -2 -2 -1 -1 -1 -1 -1 -1 -0 -0 -1 -1 -1 -0 -0 0 0 0 0 -0 -0 -0 0 0 -1 -4 -2 1 2 0 -1 -2 -0 2 1 -1 -2 -1 -1 -0 0 0 0 -0 -0 -0 -0 0 0 0 0 0 0 0 0 0 nan
nan -1 -1 -0 -0 -1 -1 -1 -1 -1 -1 -1 -1 -1 -1 -1 -1 -2 -3 -2 -1 -1 -1 -1 -1 -1 -1 -0 -0 -0 -1 -0 -0 -0 -0 -0 -0 0 0 0 -0 -1 -3 -1 1 1 1 -0 -1 -1 1 1 -0 -1 -1 -1 -0 -0 0 0 -0 -0 -0 -0 -0 -0 -0 -0 0 1 1 0 0 nan
nan -0 -0 -0 -0 -1 -1 -1 -1 -1 -1 -1 -1 -1 -1 -1 -1 -2 -3 -3 -2 -1 -1 -1 -2 -1 -1 -1 -0 0 0 -0 -0 -1 -1 -0 -0 0 1 1 -0 -1 -1 -0 1 1 0 0 -0 -0 -0 -0 0 -0 -1 -1 -1 -1 0 1 0 -0 -0 -0 -0 -0 -0 0 1 1 1 0 0 nan
nan -0 -0 -0 -1 -1 -1 -1 -1 -1 -1 -1 -1 -1 -1 -1 -1 -1 -1 -2 -2 -1 -1 -2 -2 -2 -1 -2 -2 -1 0 0 0 -0 -0 -0 -0 -1 -0 0 0 -0 -1 -1 -0 1 0 -0 -0 -0 -1 -1 -0 0 -0 -1 -1 0 1 0 -0 -0 -0 -0 -0 -0 0 1 1 0 0 0 0 nan
nan -0 -0 -1 -1 -1 -1 -1 -1 -1 -1 -1 -1 -1 -1 -1 -0 -0 -0 -1 -1 -1 -1 -1 -2 -1 -1 -2 -2 -2 -1 -1 -0 -0 -0 0 0 -1 -1 -0 0 -0 -1 -1 -0 0 -0 -0 0 0 -0 -0 -0 -0 -1 -1 -1 1 1 0 -0 -0 -0 -1 -1 0 1 1 0 -0 0 0 1 nan
nan -0 -0 -0 -0 -0 -1 -1 -1 -1 -1 -1 -1 -1 -1 -1 -1 -1 -1 -0 -0 -0 -1 -1 -1 -1 -1 -1 -1 -1 -1 -1 -1 -1 -1 -0 0 0 -0 -1 -1 -0 -0 -1 -1 -1 -1 -0 1 -0 -1 -0 0 -0 -1 -1 -1 -0 1 1 -0 -0 -0 -0 -1 0 1 1 0 0 0 -0 0 nan
nan -0 -0 0 0 -0 -0 -0 -0 -0 -1 -1 -1 -1 -1 -1 -1 -1 -1 -1 -0 -0 -0 -1 -1 -1 -1 -0 -0 -0 -1 -0 -0 -1 -1 -1 -0 1 1 0 -1 -1 -1 -1 -1 -1 -1 -0 0 -1 -1 0 0 -0 -1 -1 -1 -1 0 1 0 0 0 0 -0 1 1 1 0 0 -0 0 0 nan
nan 0 0 0 -0 -0 -0 -0 -0 -0 -0 -0 -0 -1 -1 -1 -1 -1 -1 -1 -1 -1 -1 -1 -1 -1 -1 -1 -0 -0 -0 -0 -0 -0 -0 -1 -2 -1 1 2 1 -1 -1 -1 -1 -1 -1 -1 -1 -1 -1 -0 0 -0 -0 -0 0 -0 -0 0 0 1 1 1 1 1 0 0 0 0 0 1 1 nan
nan -0 -0 -0 -0 -0 -0 -0 -0 -0 -0 -0 -0 -0 -0 -0 -0 -0 -0 -0 -0 -0 -0 -1 -1 -1 -1 -1 -1 -0 -0 -0 -0 -1 -0 -1 -2 -2 0 2 1 -1 -1 -1 -1 -1 -1 -1 -1 -1 -1 -1 0 0 -0 0 0 0 0 0 0 0 1 1 0 0 0 1 1 1 1 1 0 nan
nan -0 -0 0 -0 -0 -0 -0 0 0 0 0 -0 -0 -0 -0 -0 -0 -0 -0 -0 -0 -0 -0 -0 -1 -1 -1 -1 -1 -0 -0 -1 -1 -1 -1 -1 -2 -1 0 -0 -1 -1 -0 -0 -0 -1 -1 -0 -0 -0 -0 0 0 0 1 1 1 0 0 0 0 1 0 0 1 1 1 1 1 1 1 0 nan
nan -0 0 0 -0 -0 0 0 0 0 0 0 -0 0 -0 -0 -0 -0 -0 -0 -0 0 0 0 0 0 0 -0 -0 -0 -0 -0 -0 -1 -1 -1 -1 -1 -1 -0 0 0 -0 -0 -0 0 0 0 0 0 -0 -0 0 0 1 1 0 0 0 0 0 0 0 0 0 1 0 0 0 0 0 0 0 nan
nan -0 0 0 0 0 0 -0 -0 1 1 0 -0 -0 -0 -0 -0 -0 -0 -0 0 0 0 0 1 1 0 0 0 0 0 0 0 0 -0 -0 -0 -0 -0 0 0 0 -0 -0 0 0 0 0 1 0 0 0 1 0 0 0 0 0 0 0 0 0 0 0 0 0 0 0 0 0 0 0 -0 nan
nan -0 -0 0 0 0 -0 -0 0 1 1 -0 -0 0 -0 -1 -1 -1 -0 0 1 1 0 0 0 0 0 1 1 1 1 1 1 0 0 0 0 0 0 -0 -0 -0 0 0 0 0 0 0 0 0 0 0 0 -1 -1 -0 0 0 0 0 -0 -0 -0 -0 0 0 0 0 0 0 -0 -0 -0 nan
nan -0 -0 0 0 0 0 0 1 1 -0 -0 -0 0 -0 -0 -1 -0 1 1 1 1 0 1 0 0 0 1 1 1 1 1 1 0 0 0 0 0 -0 -0 -0 -0 0 0 0 1 1 0 0 0 0 -0 -1 -2 -1 1 1 0 -0 -0 -0 -0 -0 -0 0 0 0 -0 -0 -0 -0 -0 -0 nan
nan -1 -0 -0 0 0 0 0 0 -0 -0 0 0 -0 -0 0 0 -0 1 1 1 0 1 1 1 0 0 0 -0 -0 1 1 1 1 1 0 0 0 0 0 -0 -0 -0 -0 -0 0 1 1 0 0 -0 -1 -1 -1 0 1 0 -0 -0 0 -0 -0 -0 -0 -0 -0 -0 -0 -0 -0 -0 -0 -0 nan
nan -1 -0 -0 -0 -0 -0 -0 -0 -0 -0 -0 -0 -1 -1 -0 0 -0 -0 -0 0 0 1 1 0 0 0 -0 0 0 -0 -0 0 1 1 0 0 -0 0 0 0 -0 -0 -1 -1 -1 -0 -0 -0 0 -0 -1 -1 -1 0 0 -0 -0 -0 -0 -0 -0 -0 -0 -0 -0 -0 -0 -0 -0 -0 -0 -0 nan
nan -0 -0 -0 -0 -0 -0 -0 -0 -1 -1 -1 -1 -1 -1 -0 -0 -0 -0 -0 -0 0 1 0 0 0 -0 -0 0 1 -0 -1 -1 0 1 1 0 -0 -0 -0 -0 -0 -0 -1 -1 -0 -1 -1 -0 0 0 -0 -0 -0 0 0 -0 -0 -0 -0 -0 -0 -0 -0 -0 -0 -0 -1 -1 -0 -0 -0 -0 nan
nan -0 -0 -0 -0 -0 -0 -0 -0 -1 -1 -1 -0 -0 -0 -0 -0 -0 0 0 -0 -0 0 0 -0 -0 -0 -0 0 0 -0 -1 -1 -0 0 0 -0 -0 -0 -0 -0 -0 -0 -0 -0 -0 -0 -0 0 0 0 0 0 0 -0 -0 -1 -0 -0 -0 -0 0 0 0 -0 -0 -1 -1 -1 -1 -1 -1 -1 nan
nan -0 -0 -0 -0 -0 -0 -0 -0 -0 -1 -1 -0 -0 -0 -0 -0 0 1 -0 -2 -1 -0 0 -0 -1 -0 -0 0 0 -0 -1 -1 -1 -0 0 0 -0 0 -0 -1 -1 -0 0 0 0 -0 0 0 0 1 0 0 -0 -1 -1 -1 -0 -0 -0 0 0 0 -0 -0 -0 -0 -1 -1 -1 -1 -1 -1 nan
nan -0 -0 -0 -0 0 -0 -0 -0 -0 -1 -1 -0 0 0 -1 -0 0 0 -1 -3 -2 -0 0 -0 -1 -1 -0 0 -0 -0 -0 -1 -2 -1 0 0 -0 0 0 -0 -0 0 0 0 0 0 0 0 1 0 -0 -0 -0 -0 -0 -0 -0 -0 -0 -0 -0 -0 -0 -0 -0 -0 -1 -1 -1 -1 -1 -1 nan
nan -0 -0 -0 0 0 -0 -0 -0 -1 -1 -0 0 1 0 -1 -1 0 -1 -3 -3 -1 0 -0 -1 -1 -1 0 0 -1 -1 -1 -1 -1 -1 1 1 0 0 0 -0 0 0 0 0 0 0 0 0 0 -0 -0 0 0 -0 -0 -0 -0 -0 -0 -0 -0 -0 0 -0 -0 -1 -1 -1 -0 -0 -0 -0 nan
nan nan nan nan nan nan nan nan nan nan nan nan nan nan nan nan nan nan nan nan nan nan nan nan nan nan nan nan nan nan nan nan nan nan nan nan nan nan nan nan nan nan nan nan nan nan nan nan nan nan nan nan nan nan nan nan nan nan nan nan nan nan nan nan nan nan nan nan nan nan nan nan nan nan
Wind_Speed
30 31 33 34 35 34 33 33 34 36 39 41 43 43 43 41 39 36 35 38 40 39 37 37 37 36 32 30 32 31 31 33 34 35 35 35 35 35 35 34 33 32 30 30 31 33 34 35 35 36 36 35 34 33 32 33 33 32 31 30 30 30 31 31 31 32 32 32 32 32 32 31 31 30
29 30 32 34 35 35 35 34 34 34 35 37 39 42 44 45 44 42 39 41 43 40 39 38 37 36 32 30 32 31 31 32 33 36 36 35 35 35 32 32 32 33 33 32 32 32 34 35 36 36 36 37 36 34 33 33 33 33 32 31 30 30 31 31 32 32 32 32 32 32 33 33 32 32
27 28 29 32 34 36 36 36 35 33 33 35 37 39 42 45 47 47 43 43 47 45 42 43 40 37 35 32 30 31 32 30 29 33 37 36 35 35 33 33 33 34 33 31 30 30 32 34 36 36 37 37 37 36 36 35 34 34 33 32 31 31 31 31 32 32 33 33 33 33 33 33 33 33
25 27 28 29 31 33 35 36 35 35 36 37 38 37 39 41 45 48 45 44 49 49 47 48 46 41 39 37 32 31 32 31 28 30 33 34 34 34 34 34 33 32 30 29 28 29 31 33 34 36 37 38 38 38 37 37 36 35 34 34 33 32 32 32 32 33 33 33 33 33 33 34 34 34
25 26 28 29 29 29 32 35 35 36 38 38 37 36 37 39 42 46 47 45 48 51 50 49 49 46 42 39 36 32 30 30 30 31 29 29 32 33 33 33 32 31 29 28 28 28 29 31 34 35 36 37 39 39 39 38 38 37 36 36 35 35 34 34 34 34 33 33 33 34 34 34 34 34
25 25 27 28 29 28 29 32 33 36 38 37 35 36 37 40 41 43 45 46 47 49 50 48 47 47 44 41 40 38 35 33 33 33 30 27 28 29 29 30 31 32 31 30 28 26 25 26 30 33 36 37 38 39 40 40 40 39 39 38 38 38 37 36 35 35 34 34 33 34 34 34 34 34
26 26 26 26 27 28 29 31 32 34 37 37 37 38 38 38 38 38 40 43 45 48 49 47 45 45 45 44 43 41 41 40 38 37 35 31 27 26 27 28 29 32 33 31 30 29 27 27 27 28 31 34 37 38 39 40 41 41 41 41 41 40 38 37 36 36 35 34 33 33 34 34 34 35
28 27 27 27 27 27 28 30 31 32 35 37 39 40 38 36 37 38 39 41 43 45 47 47 46 45 45 45 43 41 41 41 39 36 35 33 30 28 30 31 31 32 33 32 32 32 32 33 32 30 29 29 32 35 37 39 40 41 42 42 42 41 40 38 37 36 36 35 35 34 34 34 34 34
25 26 26 28 29 28 26 26 28 30 33 34 36 40 41 39 38 39 41 42 41 43 46 47 45 44 44 43 42 41 39 39 39 39 37 36 34 34 35 35 34 34 32 33 34 34 35 35 34 33 32 29 28 30 33 36 38 40 41 42 42 42 41 40 39 38 37 37 36 35 35 34 34 34
25 26 26 27 30 31 29 26 26 28 30 30 30 33 37 39 41 41 42 42 40 40 42 45 44 44 44 43 42 42 40 39 40 41 42 42 39 39 39 38 37 35 31 30 32 32 33 34 35 34 34 33 31 29 29 31 33 37 40 41 43 43 43 42 41 40 39 38 38 37 36 36 35 35
30 30 30 30 33 35 34 30 26 26 29 30 30 30 30 32 36 39 40 41 40 38 38 41 43 43 44 44 44 45 43 41 42 43 44 44 42 39 37 35 36 35 31 31 33 32 30 31 33 34 34 32 31 30 31 31 32 33 36 39 41 43 43 44 44 43 42 41 40 39 38 37 37 36
34 35 34 34 35 36 37 35 31 29 30 31 33 33 31 30 31 32 34 37 38 37 39 40 40 40 42 43 43 44 42 41 43 45 45 45 42 38 35 33 34 35 33 33 35 37 34 31 31 33 33 32 32 33 33 32 32 33 33 35 38 41 42 44 45 45 44 43 42 41 40 39 38 38
38 38 39 39 39 38 38 39 39 38 36 34 35 35 34 34 34 32 33 35 35 36 38 38 37 37 38 40 40 40 40 40 40 41 42 41 39 38 36 35 35 36 36 36 35 35 35 33 32 31 31 32 33 33 31 29 30 31 30 31 33 35 38 41 44 46 46 46 45 43 42 41 40 40
39 40 40 42 43 42 40 40 41 42 41 38 37 36 35 36 36 34 33 34 34 36 37 36 33 33 35 37 37 36 37 37 36 37 38 37 36 36 36 37 35 34 35 36 35 34 33 32 32 31 30 30 30 30 29 29 30 30 29 29 28 28 30 32 36 39 43 45 46 45 44 43 42 42
36 37 37 36 37 37 37 38 39 40 40 38 36 36 35 35 34 32 31 31 31 32 35 34 30 30 32 34 34 34 34 33 31 32 34 35 36 36 36 37 35 33 33 34 35 34 32 31 31 32 31 31 31 32 31 31 31 31 30 29 28 27 27 27 28 30 32 36 40 42 43 43 43 44
35 36 34 32 30 30 29 30 32 33 33 33 33 34 34 33 33 33 32 32 31 31 34 34 30 28 29 29 28 30 31 31 30 29 31 33 35 36 36 37 36 34 34 34 34 35 34 32 31 31 31 32 34 36 35 35 35 35 32 30 29 28 28 28 29 29 28 28 30 33 36 38 41 43
34 32 30 29 28 27 25 24 26 27 27 27 28 30 31 31 32 33 34 35 35 34 33 32 32 31 29 28 26 26 26 28 30 30 28 29 32 33 34 35 36 35 34 33 33 36 37 36 34 35 34 33 34 36 35 34 35 36 35 33 32 31 30 30 30 30 30 30 29 30 31 33 36 39
26 25 25 25 25 25 25 23 23 24 26 26 27 28 29 30 29 29 29 31 34 35 33 32 34 35 34 33 33 31 29 29 30 30 28 29 31 32 33 34 34 34 34 34 33 36 38 37 36 38 36 35 35 35 35 34 34 34 34 34 35 35 33 32 31 31 30 30 31 31 30 30 32 35
23 23 23 24 24 24 23 21 21 24 26 27 27 27 27 28 28 27 25 24 26 30 33 33 33 33 32 33 35 35 34 35 34 33 32 33 33 34 34 33 33 34 35 35 36 37 37 36 37 39 38 37 38 39 39 38 37 36 34 33 33 34 33 32 32 30 30 29 28 28 29 29 30 32
22 22 22 22 23 23 21 20 22 26 29 29 28 27 26 26 26 26 26 23 20 21 25 27 28 27 27 27 29 30 31 33 35 35 34 34 33 34 34 34 35 36 34 33 35 37 37 36 37 39 38 39 42 44 43 41 38 37 36 35 35 34 33 33 33 33 31 29 27 27 28 28 29 30
23 22 20 20 21 22 21 22 25 27 29 29 29 28 27 25 24 25 24 23 20 18 19 20 22 24 24 25 27 27 27 28 31 33 35 35 34 34 34 34 35 36 35 34 33 34 35 35 36 38 38 38 40 40 39 38 38 39 40 40 40 39 37 37 36 35 35 33 30 29 29 29 30 30
22 20 18 17 19 20 21 23 26 26 27 28 29 29 29 28 26 25 24 23 21 19 19 19 21 23 23 24 26 27 27 27 28 31 34 34 34 36 36 36 35 36 38 37 35 34 35 35 36 38 37 36 37 36 35 35 36 38 40 41 41 41 40 39 37 35 35 34 33 33 32 31 32 33
19 19 18 15 14 17 20 22 23 24 25 25 26 27 29 30 29 27 27 27 25 23 22 21 22 22 22 22 24 25 26 28 29 31 33 32 32 35 37 37 36 37 38 38 36 36 37 36 37 38 36 35 37 37 35 34 34 34 35 37 38 38 37 36 35 34 34 35 35 35 34 34 35 36
21 21 18 12 10 15 20 22 24 25 26 26 25 24 26 28 30 31 31 31 30 29 28 27 26 25 24 22 23 23 24 25 26 28 31 31 32 35 37 39 39 40 42 40 37 37 37 36 36 38 36 35 36 36 36 35 34 32 31 31 33 33 32 31 32 32 33 34 34 35 36 37 37 38
22 22 18 14 13 16 19 21 24 27 28 28 27 25 25 26 28 31 33 33 33 34 34 34 32 31 29 27 25 24 23 22 22 23 25 27 28 30 34 37 39 42 43 40 38 39 39 36 36 37 37 36 36 37 38 38 36 34 31 29 30 31 31 31 32 32 33 34 35 35 35 36 38 38
19 19 17 16 18 20 19 19 22 26 28 29 29 29 28 27 27 29 31 33 35 36 36 36 35 34 32 30 28 27 25 23 20 19 21 24 26 28 30 32 35 38 39 36 34 35 36 34 33 35 37 38 37 37 38 39 38 35 34 33 33 33 32 33 33 33 33 33 33 32 32 34 35 35
15 16 18 19 19 20 19 18 18 21 23 25 28 30 30 29 27 27 28 29 30 31 32 33 34 34 33 32 30 29 29 28 25 22 22 24 26 27 27 29 32 34 34 32 32 35 35 34 34 34 35 36 36 35 35 36 36 35 34 35 35 34 33 33 33 33 31 30 29 29 30 32 33 33
15 17 19 19 18 17 17 15 14 16 17 19 21 24 27 28 28 27 26 24 23 24 24 24 25 26 26 26 26 26 26 28 28 27 27 27 27 28 28 28 29 31 30 29 30 32 33 34 36 36 33 32 33 35 34 33 34 35 35 35 34 34 35 35 35 33 30 28 28 29 30 32 33 34
19 20 20 18 16 15 15 13 12 12 12 13 14 15 18 20 22 23 23 23 23 23 23 20 19 17 16 16 17 18 19 21 22 24 27 28 28 27 27 25 26 28 28 27 27 28 28 31 33 34 33 33 34 35 33 33 33 35 36 36 36 37 36 35 32 30 28 28 28 27 26 24 24 24
19 19 18 17 16 15 16 15 15 14 13 12 11 11 10 10 11 12 14 16 18 19 21 21 21 19 17 16 16 17 18 19 20 22 25 27 27 26 24 22 23 26 28 30 30 28 28 29 30 31 31 32 33 32 32 32 33 34 35 37 36 34 31 30 30 28 25 24 22 20 18 17 16 16
14 14 16 18 20 20 19 19 18 17 17 17 16 14 12 9 8 7 7 8 10 12 14 18 20 21 21 21 21 21 21 21 22 23 24 25 26 27 27 26 25 27 29 31 31 31 29 29 29 29 28 29 30 30 31 31 28 25 24 24 22 19 19 20 21 21 18 16 15 15 16 17 16 16
13 15 20 23 24 23 23 23 22 22 21 21 20 18 15 13 11 8 6 5 5 6 7 10 13 16 19 22 23 24 25 25 26 27 27 27 28 29 29 28 26 26 26 27 27 29 28 27 27 28 27 27 28 26 26 27 25 20 16 13 13 13 13 11 12 13 13 14 15 15 15 15 14 14
16 19 22 24 25 26 27 27 26 26 25 25 23 22 20 18 17 15 12 10 8 6 4 4 4 6 9 12 15 18 20 21 22 23 24 25 25 25 24 23 21 21 22 22 21 21 21 22 22 22 21 21 20 17 15 15 13 11 9 8 9 10 10 8 8 9 10 12 13 12 11 10 10 10
19 21 22 23 25 26 27 28 28 28 28 27 27 26 24 23 23 22 20 19 16 12 10 8 6 5 4 2 2 5 7 8 10 12 13 14 14 15 15 14 13 13 15 16 15 13 12 12 11 8 7 8 7 7 7 6 6 5 5 5 5 5 4 5 5 5 5 6 7 7 5 4 4 4
21 22 23 23 24 25 26 26 27 28 28 28 28 28 27 27 27 26 26 25 22 18 16 15 13 13 12 11 9 7 6 4 3 2 1 2 2 3 4 5 4 4 4 6 7 7 7 8 7 5 4 3 6 9 10 8 7 6 4 4 4 3 3 4 4 5 5 4 4 3 3 3 2 2
20 21 21 22 22 23 24 25 25 26 26 26 27 27 27 28 28 29 29 29 27 24 22 20 19 19 19 19 18 16 15 14 13 12 11 10 10 10 10 10 10 9 8 7 5 3 3 4 7 9 9 9 11 14 15 13 10 8 8 8 8 7 6 5 4 5 5 5 5 3 4 6 5 4
18 19 19 19 19 20 22 22 22 23 23 23 24 25 26 27 27 28 28 27 27 27 27 25 25 24 24 23 23 23 21 20 20 19 19 18 17 17 18 18 19 19 19 18 16 12 9 8 8 10 12 13 16 18 18 15 13 13 12 12 11 11 10 8 6 4 4 3 2 2 3 4 4 4
17 18 18 18 18 18 18 18 19 19 20 20 21 22 23 23 23 24 25 25 25 26 26 26 26 26 25 25 26 26 26 25 24 23 23 22 22 21 20 20 20 21 21 21 21 20 17 16 15 15 15 16 18 18 16 14 15 16 15 14 13 13 11 10 9 8 6 5 5 4 3 2 2 2
17 17 18 18 17 17 16 16 16 17 17 17 17 19 20 20 20 20 21 23 23 22 22 23 23 23 24 24 24 24 25 26 25 24 23 22 22 21 20 19 18 18 18 19 20 21 21 20 18 16 15 16 16 16 15 15 15 16 16 14 13 13 12 12 12 11 9 8 8 6 5 4 2 2
16 16 16 16 16 16 15 15 15 15 16 15 14 15 16 17 18 19 19 20 21 21 20 19 19 19 20 21 20 20 20 22 23 23 21 20 19 19 18 18 17 16 16 18 19 20 22 22 19 15 14 13 13 12 12 13 15 16 16 15 14 14 13 13 13 13 13 13 12 10 8 7 5 2
14 15 15 14 14 14 14 14 14 14 15 15 14 13 13 14 16 18 19 19 20 21 20 19 18 18 17 17 17 17 17 17 19 19 18 17 16 15 14 15 17 18 17 17 18 19 18 17 15 13 13 12 10 9 11 15 16 16 15 15 13 12 11 11 12 14 15 15 15 14 13 11 9 7
13 14 14 13 13 13 13 13 14 14 15 15 14 13 13 14 16 17 18 19 22 23 21 19 20 20 18 16 16 16 16 15 16 18 17 15 13 13 12 12 14 17 18 18 18 17 14 12 11 10 12 13 13 14 17 19 17 14 13 12 9 8 8 9 12 13 14 13 14 16 16 14 13 13
12 13 13 13 13 13 13 14 15 15 16 16 14 13 14 16 17 17 18 22 24 25 22 19 20 21 21 18 15 14 15 15 15 18 19 17 14 14 15 14 14 14 15 15 15 13 13 15 15 14 15 18 19 19 19 18 14 12 13 13 11 10 9 9 12 14 14 12 13 15 16 15 14 14
11 11 11 12 12 13 14 15 16 17 17 16 14 12 13 16 17 18 21 24 26 25 23 20 19 20 22 20 17 15 15 15 16 17 20 20 18 16 16 17 18 17 16 15 14 14 14 17 18 17 18 19 19 18 19 17 13 12 14 14 14 15 13 11 12 15 16 15 14 13 13 12 11 10
10 10 10 10 10 12 14 15 16 17 17 17 15 14 13 14 16 17 20 23 24 23 23 22 19 19 20 22 21 19 16 15 15 16 18 21 21 19 17 18 20 21 19 18 18 18 16 17 18 19 19 18 18 19 20 18 13 12 14 15 17 17 16 14 14 15 16 15 12 10 9 8 8 8
Wind_Direction
256 260 264 267 268 267 266 265 264 261 256 254 254 254 253 254 255 258 261 262 262 262 262 262 262 260 258 254 252 252 253 255 255 255 254 253 255 257 256 259 263 263 263 262 259 255 253 252 252 251 251 251 251 252 253 254 254 254 254 254 255 254 254 254 254 255 255 256 256 256 256 257 258 260
258 258 260 263 266 267 267 267 266 264 259 256 256 256 255 254 253 254 257 260 261 261 260 260 260 259 257 255 255 252 252 257 258 253 251 252 254 256 256 256 259 261 263 264 263 259 256 253 252 252 252 252 251 251 252 252 253 253 253 254 255 255 256 256 257 257 257 257 257 256 256 257 259 260
267 264 262 261 262 264 267 268 265 262 260 259 259 260 258 256 253 251 252 256 259 258 258 259 258 256 257 259 259 258 256 256 257 254 250 249 250 251 253 255 258 261 264 265 263 259 257 256 253 252 251 251 252 252 252 252 252 252 253 254 255 256 257 258 258 258 259 258 258 258 258 258 258 259
275 269 265 264 263 264 265 268 266 264 264 264 263 262 260 257 255 252 248 251 257 257 257 260 259 258 260 260 257 256 255 252 258 265 257 249 250 251 251 254 258 262 266 268 266 262 258 257 256 254 252 251 252 252 252 253 253 253 253 253 255 257 258 260 260 260 260 259 259 259 259 259 259 259
277 274 269 266 265 265 266 268 269 269 268 263 261 261 259 257 256 251 247 249 254 257 257 258 259 260 259 256 250 249 250 250 260 273 267 251 248 251 252 255 258 261 266 271 272 268 262 257 256 256 255 253 252 252 253 254 254 255 255 255 257 259 260 261 261 261 260 260 260 260 260 261 260 260
275 275 274 271 267 266 266 266 267 270 271 266 263 263 261 259 255 249 247 249 252 256 258 257 257 258 257 254 251 249 248 248 256 266 267 257 250 248 250 255 259 262 266 271 273 274 270 264 260 259 259 256 254 253 253 254 255 256 257 258 259 260 262 262 261 261 260 260 261 261 261 262 262 262
279 275 275 275 272 270 269 267 265 266 269 268 268 267 262 257 255 251 251 251 251 254 258 257 255 256 256 255 254 252 251 253 256 258 260 261 256 248 247 252 258 263 267 270 272 274 275 274 270 268 266 263 260 257 255 254 255 256 257 258 259 260 261 261 261 260 259 260 260 261 262 263 263 263
283 280 276 276 275 271 270 272 270 268 268 267 268 268 263 257 257 258 255 253 252 252 255 257 256 256 256 255 254 253 254 256 255 252 254 259 259 255 253 253 255 259 263 267 270 271 272 274 275 274 273 270 266 263 260 258 257 257 257 258 259 259 260 260 260 260 259 259 259 261 262 263 264 264
275 277 275 276 275 270 268 272 273 270 269 269 270 271 269 265 262 260 255 252 251 249 251 255 257 256 255 253 253 253 255 254 250 248 250 254 257 260 259 257 256 256 257 262 265 266 267 269 273 275 274 273 272 269 267 264 262 261 260 259 259 260 260 260 260 260 260 260 259 260 261 262 264 264
263 265 266 269 270 267 264 270 275 272 269 270 271 273 273 270 267 264 258 253 250 248 250 254 256 257 254 251 251 253 252 251 249 251 253 255 258 262 261 258 256 254 255 258 261 266 269 270 271 272 272 272 273 274 272 268 266 264 263 263 262 261 261 260 260 260 260 260 260 260 260 261 262 264
265 265 264 263 263 263 262 267 277 278 273 270 269 270 274 274 272 269 261 255 252 252 253 254 254 256 257 255 254 254 252 251 253 257 259 258 258 258 257 256 254 251 252 254 256 260 266 272 273 270 270 271 271 272 274 273 270 266 264 263 263 262 262 261 261 260 260 260 260 260 260 260 261 262
268 268 268 266 261 260 262 264 269 273 274 273 270 270 275 280 280 276 266 259 257 254 252 252 253 256 259 259 257 255 253 252 255 259 260 260 258 254 252 254 254 252 252 253 254 255 256 264 268 264 262 266 269 270 272 273 272 270 268 265 263 263 262 262 261 260 260 260 260 260 261 261 262 262
267 266 268 268 263 259 259 261 263 266 268 271 274 276 279 281 282 280 272 264 260 256 254 252 251 253 256 256 255 254 253 254 257 260 261 260 257 255 255 256 256 256 256 254 254 256 256 261 265 262 258 262 266 268 269 271 272 272 271 270 268 266 264 264 263 262 261 260 260 259 260 260 262 262
271 268 266 266 266 263 262 261 262 264 265 267 272 277 281 283 280 277 274 269 266 265 263 259 253 249 251 254 254 253 255 258 260 261 261 258 256 256 258 259 259 258 257 256 255 257 259 261 264 264 262 261 260 260 262 265 268 271 273 274 275 275 273 271 269 267 265 262 261 260 260 260 261 262
279 277 275 274 274 272 270 266 264 264 263 265 270 273 276 280 277 272 270 270 269 267 265 264 259 252 253 256 258 257 258 259 260 260 259 258 258 259 260 263 263 259 256 257 257 259 262 262 262 261 259 259 260 261 262 265 267 270 270 270 273 277 279 279 278 276 273 268 264 262 262 262 262 262
285 285 286 286 285 284 281 277 273 269 264 264 270 273 273 274 272 268 264 264 265 264 262 264 264 258 256 258 260 261 260 261 262 262 261 260 260 260 261 264 265 261 259 259 260 263 265 264 263 259 254 255 259 261 263 267 270 270 268 268 269 270 271 274 277 279 278 275 270 266 263 263 262 262
287 287 287 288 288 289 289 285 282 280 275 270 271 272 270 269 267 266 263 261 262 261 260 263 264 261 261 262 263 264 264 264 264 262 261 263 264 262 262 266 267 264 261 260 262 266 268 267 267 263 258 257 259 260 261 264 267 268 267 267 268 267 266 268 272 274 275 276 274 271 268 267 265 262
286 285 285 285 287 288 289 289 289 288 286 281 277 273 269 267 265 263 262 260 259 259 259 262 264 263 264 264 264 266 266 265 266 264 263 266 268 268 266 266 265 262 259 259 261 264 267 270 270 265 261 259 260 262 263 265 266 264 262 262 264 265 267 268 268 269 271 273 274 274 274 273 270 266
287 285 284 284 285 287 290 293 291 287 284 281 279 276 273 269 265 265 268 267 262 259 259 260 261 262 262 263 265 268 268 267 268 269 269 271 272 272 269 267 265 263 260 260 262 264 267 270 269 266 264 263 265 266 268 268 268 264 261 261 262 264 267 268 268 268 267 268 272 275 275 274 271 269
288 287 286 286 286 286 287 286 281 278 278 277 278 277 276 273 269 267 270 271 265 262 262 262 263 265 264 263 264 267 267 267 267 269 269 270 270 269 268 268 269 269 265 263 262 262 266 269 269 268 269 269 270 271 271 269 266 262 263 265 264 264 267 268 268 268 268 268 270 270 271 271 272 271
295 293 290 288 289 289 285 278 274 274 276 276 276 276 275 272 268 266 268 268 264 264 265 265 267 268 267 264 262 260 260 261 262 264 263 263 263 264 264 265 267 268 268 267 265 264 266 269 270 270 272 273 272 272 272 269 265 262 265 266 265 265 267 268 269 269 267 267 267 267 266 268 271 272
309 308 302 293 289 287 282 276 274 276 279 278 276 274 272 269 265 264 267 265 258 255 257 260 261 262 263 263 261 259 257 256 257 260 260 260 262 264 264 264 266 268 268 268 267 265 265 268 270 272 273 273 272 273 273 272 269 266 266 265 263 263 266 268 270 268 264 263 266 267 266 265 268 270
325 326 320 308 293 284 281 279 276 276 278 278 275 272 269 266 264 262 263 264 261 257 258 259 258 257 259 261 261 260 259 258 256 258 260 260 261 263 264 265 266 266 266 267 268 265 264 266 269 271 270 269 272 274 275 274 274 271 269 266 264 263 265 267 268 267 263 262 265 267 267 267 268 270
339 339 335 330 310 288 281 279 278 277 278 279 278 274 269 265 264 261 259 260 261 263 265 263 261 262 264 265 264 263 262 260 259 259 260 260 259 260 262 263 262 262 264 267 269 269 268 267 267 268 267 265 268 272 273 273 274 275 274 269 265 263 264 266 267 266 264 264 266 268 267 267 268 270
347 348 347 343 323 299 285 280 281 282 282 280 280 278 273 268 266 264 262 260 259 262 267 268 267 267 267 266 266 265 264 263 263 262 262 262 261 261 261 261 261 262 265 268 268 269 269 267 263 263 263 261 262 267 272 272 272 273 273 269 265 264 266 268 267 266 266 269 270 269 267 267 268 271
351 347 337 326 317 309 300 292 286 283 280 278 277 276 274 271 269 267 265 263 261 261 264 267 267 267 268 268 267 265 264 265 271 276 277 277 274 270 268 268 266 264 264 267 266 264 264 264 261 258 257 258 260 265 269 272 273 272 269 265 263 264 267 268 268 268 271 274 272 269 267 268 269 270
348 334 323 318 316 314 311 304 296 288 283 280 276 274 275 275 274 272 268 266 266 265 266 268 269 270 273 274 271 268 264 264 267 273 277 280 281 279 278 277 275 271 269 269 268 264 264 266 268 263 257 256 260 263 266 271 275 274 269 266 264 265 268 271 271 272 273 271 268 266 268 271 270 267
346 337 335 335 331 327 322 316 307 297 290 285 280 277 275 274 274 274 271 268 269 269 269 270 272 275 279 282 282 280 275 272 270 269 267 269 275 281 283 282 281 281 281 279 275 272 271 271 271 268 262 259 262 264 265 268 272 273 270 267 266 267 270 271 269 267 264 261 262 266 270 272 268 260
3 357 358 358 353 350 349 349 344 331 318 309 298 288 280 274 271 270 267 266 265 264 263 263 265 268 270 274 277 277 275 273 272 270 266 264 266 273 280 284 286 288 290 288 284 283 283 278 272 269 266 263 262 265 269 271 271 271 269 268 268 268 268 265 260 255 254 257 262 267 268 269 267 257
13 4 11 19 21 23 23 20 20 15 5 356 345 329 314 300 289 281 275 270 267 264 262 259 257 254 251 251 251 251 253 256 258 261 264 265 263 264 270 278 283 287 289 289 288 288 287 285 280 273 267 262 261 266 273 274 273 269 264 262 262 260 253 246 243 244 250 256 259 258 253 252 257 259
25 17 32 44 45 46 45 42 40 36 30 25 21 16 12 7 357 342 322 303 289 281 274 268 261 255 249 248 247 248 249 251 253 256 260 264 265 264 267 275 284 289 289 289 289 289 288 287 283 276 272 270 270 272 272 269 270 269 260 253 250 243 233 229 232 236 239 240 237 236 237 242 248 252
50 45 49 53 54 54 54 53 51 49 46 42 39 36 36 35 32 28 16 345 322 312 302 291 280 270 261 255 254 255 257 259 260 261 264 268 270 270 274 281 288 288 286 285 285 285 285 283 279 276 276 277 277 276 271 264 262 265 263 254 245 237 229 225 225 223 222 225 226 227 230 235 239 241
57 52 51 54 56 56 55 54 54 53 52 51 50 48 48 48 48 48 47 45 42 35 16 350 324 302 284 271 266 265 267 270 272 274 277 280 283 283 285 287 283 276 274 276 277 277 277 276 275 274 274 275 272 268 260 249 240 240 242 238 231 225 221 224 226 218 215 218 219 219 221 223 225 229
58 57 55 54 55 55 55 56 56 54 52 52 53 53 53 54 55 56 56 56 58 61 64 68 69 65 56 28 282 272 276 280 284 288 291 292 291 288 283 275 266 262 264 265 262 257 253 254 259 269 278 270 249 218 197 180 157 157 182 193 195 196 198 208 209 198 198 207 206 205 210 212 224 247
55 56 55 53 53 53 53 53 54 54 53 54 55 55 55 56 57 58 59 59 60 63 69 74 80 85 86 87 90 94 92 89 86 63 353 319 305 286 264 251 250 261 271 263 250 232 212 200 186 147 109 132 147 130 116 107 104 107 116 118 122 132 141 146 140 123 108 106 117 129 124 105 77 342
50 49 48 48 49 49 49 48 48 51 52 53 54 56 58 58 58 57 57 59 61 63 64 68 72 78 82 85 89 93 96 97 97 97 96 93 91 94 95 91 85 80 75 75 88 123 157 171 165 146 128 123 117 98 81 71 70 71 72 73 72 70 74 86 101 110 107 102 105 109 98 87 73 44
45 43 40 39 42 44 45 44 44 45 48 50 51 54 55 56 57 56 55 57 59 61 63 65 67 70 74 78 82 84 87 91 93 93 92 91 90 91 90 86 81 77 73 71 72 78 91 101 109 114 111 103 95 85 75 70 68 63 61 62 59 54 53 54 54 51 46 45 54 72 83 98 105 80
43 40 37 33 33 36 39 40 40 40 40 43 47 51 52 53 54 55 55 54 53 54 57 60 62 63 64 67 70 72 74 79 83 86 87 87 87 84 82 81 80 78 76 71 65 63 74 87 89 87 86 85 84 79 72 69 65 56 50 51 50 45 39 34 32 34 33 29 29 31 35 46 80 75
42 39 36 32 29 29 31 34 37 36 34 33 39 46 48 48 49 52 55 55 53 50 51 54 57 58 58 56 56 59 62 64 67 70 72 75 76 75 72 72 75 76 76 74 66 57 55 61 68 74 76 79 80 76 66 61 58 50 44 43 42 38 35 31 29 29 30 28 24 21 25 32 37 60
45 41 38 34 30 28 27 29 33 36 35 32 33 39 42 43 45 47 50 53 54 52 51 53 55 58 60 58 53 50 51 53 55 58 61 63 64 64 63 63 67 66 64 65 64 57 48 44 47 57 66 69 74 77 73 66 59 54 51 51 46 39 35 34 34 34 33 30 24 19 24 33 37 53
49 46 43 40 36 33 31 31 34 38 41 40 40 43 45 45 47 49 50 52 53 51 51 54 56 56 60 64 63 59 55 53 53 54 56 58 59 61 63 65 66 65 63 61 59 56 50 42 38 50 64 68 74 86 82 68 57 53 55 60 59 46 35 39 47 44 35 29 24 20 20 23 22 19
47 48 47 45 44 44 41 39 39 42 45 46 48 54 57 56 55 56 57 57 53 48 47 53 57 55 53 59 68 70 69 66 62 57 56 60 68 72 76 76 69 62 63 64 62 60 56 44 37 53 70 72 74 78 72 62 54 47 46 52 54 38 32 48 59 50 38 35 34 27 21 19 17 11
44 45 47 46 47 50 49 46 45 45 44 45 49 57 63 63 59 56 57 56 50 42 39 47 55 55 51 51 59 68 71 70 68 62 56 58 66 73 77 79 74 66 65 67 68 67 60 51 52 66 72 68 68 70 67 62 57 43 34 34 33 31 41 68 75 62 49 46 45 36 27 23 20 11
44 42 45 46 47 51 53 52 49 47 44 44 45 49 57 65 65 61 58 54 46 37 34 41 50 53 52 49 48 54 63 67 68 64 60 58 62 68 74 77 75 71 68 67 66 65 62 60 64 70 68 64 65 66 64 65 61 40 27 25 29 38 52 73 80 68 54 44 40 38 33 26 17 2
50 44 44 46 48 53 55 53 49 48 47 45 43 45 53 62 65 63 61 58 49 36 30 35 43 48 51 50 46 46 55 63 63 64 65 64 63 65 69 73 73 69 65 61 59 58 61 65 66 63 61 64 69 67 63 60 50 32 27 30 34 43 54 57 56 58 54 42 36 36 25 2 346 339
Height
1480 1480 1480 1479 1478 1478 1479 1479 1480 1481 1481 1482 1482 1482 1483 1484 1484 1483 1481 1479 1479 1481 1482 1483 1483 1484 1485 1486 1486 1486 1487 1489 1490 1489 1488 1488 1487 1486 1487 1487 1488 1488 1489 1489 1489 1489 1490 1490 1490 1491 1491 1492 1493 1494 1495 1496 1497 1498 1499 1500 1500 1501 1502 1503 1504 1504 1505 1506 1507 1508 1509 1509 1510 1511
1476 1476 1476 1476 1475 1474 1475 1476 1476 1477 1477 1478 1478 1478 1479 1480 1480 1479 1477 1474 1474 1476 1477 1478 1479 1480 1481 1482 1482 1482 1482 1484 1487 1487 1485 1485 1484 1483 1483 1484 1484 1484 1485 1485 1486 1486 1486 1486 1487 1487 1488 1489 1490 1491 1492 1492 1493 1494 1495 1496 1497 1498 1498 1499 1499 1500 1501 1502 1503 1504 1505 1506 1506 1507
1473 1473 1473 1473 1472 1472 1471 1472 1472 1473 1473 1474 1474 1474 1475 1476 1475 1475 1475 1471 1469 1471 1472 1472 1475 1477 1477 1478 1478 1478 1479 1480 1481 1482 1482 1482 1481 1480 1480 1480 1480 1480 1481 1482 1482 1482 1482 1482 1483 1483 1484 1485 1486 1487 1488 1489 1490 1491 1491 1492 1493 1494 1494 1495 1495 1496 1497 1498 1499 1500 1501 1502 1502 1503
1470 1469 1469 1469 1469 1469 1469 1468 1468 1468 1469 1470 1470 1471 1471 1471 1471 1471 1471 1467 1464 1466 1468 1468 1470 1472 1473 1474 1474 1475 1476 1477 1477 1477 1477 1478 1478 1477 1476 1476 1477 1477 1477 1478 1478 1479 1479 1479 1479 1480 1480 1481 1482 1483 1484 1485 1486 1487 1488 1488 1489 1490 1490 1491 1491 1492 1493 1494 1495 1496 1496 1497 1498 1499
1467 1466 1466 1466 1466 1467 1466 1466 1465 1464 1465 1466 1466 1466 1467 1466 1467 1467 1466 1464 1461 1461 1463 1463 1464 1467 1469 1469 1470 1471 1471 1473 1474 1473 1473 1475 1475 1474 1473 1473 1473 1473 1474 1474 1474 1475 1475 1476 1476 1476 1476 1477 1477 1478 1479 1480 1482 1483 1483 1484 1485 1486 1486 1487 1487 1488 1489 1489 1490 1491 1492 1493 1494 1495
1464 1463 1462 1462 1462 1463 1463 1463 1463 1462 1461 1461 1461 1461 1462 1461 1462 1463 1462 1460 1458 1456 1457 1458 1459 1461 1463 1464 1465 1467 1467 1468 1469 1470 1471 1472 1471 1471 1471 1471 1470 1470 1471 1471 1471 1471 1471 1472 1472 1472 1472 1473 1473 1474 1475 1476 1477 1478 1479 1480 1480 1481 1482 1483 1483 1484 1485 1485 1486 1487 1488 1489 1489 1490
1461 1460 1459 1459 1459 1460 1459 1459 1460 1459 1458 1458 1457 1457 1457 1457 1457 1459 1459 1457 1456 1454 1452 1453 1455 1456 1458 1459 1460 1463 1463 1464 1465 1466 1467 1468 1468 1468 1468 1468 1467 1467 1467 1468 1468 1468 1468 1468 1469 1469 1469 1469 1469 1470 1471 1472 1473 1473 1474 1475 1476 1477 1478 1478 1479 1480 1480 1481 1482 1483 1483 1484 1485 1486
1458 1457 1456 1455 1455 1455 1456 1456 1456 1456 1456 1455 1454 1453 1453 1452 1453 1454 1454 1452 1452 1451 1448 1448 1450 1451 1452 1454 1456 1458 1459 1459 1460 1461 1462 1463 1464 1464 1464 1463 1464 1464 1464 1465 1465 1465 1465 1465 1465 1465 1465 1465 1466 1466 1467 1467 1468 1469 1470 1471 1471 1472 1473 1474 1474 1475 1476 1477 1477 1478 1479 1480 1480 1481
1454 1453 1452 1452 1451 1450 1450 1451 1452 1452 1452 1452 1451 1450 1449 1449 1449 1449 1449 1448 1448 1447 1444 1444 1445 1447 1448 1449 1451 1453 1455 1455 1455 1456 1456 1458 1459 1459 1459 1459 1459 1460 1460 1461 1461 1462 1462 1461 1461 1461 1461 1462 1462 1463 1463 1463 1464 1464 1465 1466 1466 1467 1468 1469 1470 1471 1472 1472 1473 1474 1474 1475 1476 1477
1449 1448 1448 1447 1446 1446 1446 1446 1447 1447 1447 1447 1447 1447 1446 1445 1445 1444 1445 1445 1444 1443 1442 1442 1442 1442 1443 1444 1446 1448 1449 1450 1450 1450 1451 1452 1453 1453 1454 1454 1455 1456 1456 1456 1457 1458 1458 1459 1458 1458 1458 1458 1459 1459 1459 1459 1459 1460 1460 1461 1461 1462 1463 1464 1465 1466 1467 1468 1469 1469 1470 1471 1471 1472
1446 1445 1444 1444 1443 1443 1442 1443 1443 1443 1443 1442 1442 1441 1441 1441 1441 1440 1440 1441 1440 1440 1440 1440 1439 1439 1440 1441 1441 1443 1445 1445 1445 1446 1445 1445 1446 1448 1448 1449 1450 1451 1451 1451 1452 1452 1453 1454 1455 1456 1455 1455 1455 1455 1455 1455 1455 1455 1456 1456 1456 1457 1458 1459 1460 1461 1462 1463 1464 1465 1465 1466 1467 1468
1443 1442 1441 1440 1440 1440 1439 1439 1440 1439 1439 1438 1437 1437 1437 1437 1437 1436 1436 1436 1436 1436 1436 1435 1436 1436 1437 1437 1438 1439 1441 1440 1439 1440 1440 1439 1441 1443 1444 1444 1445 1445 1446 1446 1447 1447 1448 1449 1451 1452 1453 1453 1452 1452 1451 1451 1451 1451 1451 1451 1451 1452 1453 1454 1455 1455 1456 1457 1458 1459 1460 1461 1462 1463
1439 1438 1438 1437 1436 1436 1435 1435 1435 1435 1436 1436 1435 1434 1434 1434 1433 1433 1433 1432 1432 1431 1430 1431 1432 1433 1433 1434 1435 1435 1435 1435 1435 1436 1436 1436 1437 1439 1439 1439 1440 1441 1441 1441 1442 1443 1443 1444 1446 1448 1449 1450 1449 1448 1448 1447 1447 1447 1447 1447 1447 1447 1448 1448 1449 1450 1451 1451 1452 1454 1455 1456 1457 1458
1435 1434 1434 1433 1432 1432 1431 1431 1431 1431 1432 1433 1432 1432 1432 1431 1431 1430 1429 1428 1428 1428 1427 1427 1429 1429 1428 1430 1432 1431 1431 1431 1432 1433 1433 1433 1434 1435 1434 1433 1435 1436 1437 1436 1436 1438 1439 1441 1443 1444 1445 1446 1446 1445 1444 1444 1443 1443 1444 1444 1444 1444 1444 1444 1444 1444 1445 1446 1447 1448 1449 1450 1451 1452
1430 1429 1428 1428 1427 1427 1427 1426 1426 1426 1427 1428 1428 1429 1429 1428 1427 1426 1426 1425 1425 1425 1424 1424 1425 1425 1424 1426 1427 1427 1428 1429 1429 1429 1429 1430 1431 1432 1430 1429 1429 1431 1432 1432 1432 1433 1436 1438 1439 1439 1440 1441 1441 1440 1440 1439 1439 1440 1440 1440 1440 1440 1440 1440 1440 1440 1440 1440 1441 1442 1443 1444 1445 1446
1426 1425 1423 1423 1422 1422 1422 1421 1421 1421 1422 1423 1424 1424 1424 1423 1422 1422 1422 1421 1421 1422 1422 1421 1422 1422 1422 1422 1423 1424 1425 1425 1426 1426 1426 1427 1427 1427 1427 1426 1426 1426 1428 1429 1428 1429 1432 1434 1434 1434 1435 1436 1437 1436 1436 1435 1435 1435 1435 1436 1436 1436 1436 1435 1436 1436 1436 1436 1436 1437 1438 1439 1439 1440
1422 1421 1420 1419 1418 1418 1418 1417 1417 1416 1417 1418 1418 1418 1418 1418 1417 1417 1417 1417 1417 1418 1417 1417 1418 1419 1420 1420 1420 1422 1422 1422 1423 1423 1423 1423 1423 1422 1423 1423 1424 1424 1425 1425 1425 1425 1427 1429 1429 1429 1430 1432 1432 1432 1432 1432 1431 1431 1431 1431 1431 1431 1431 1431 1431 1432 1432 1432 1432 1432 1433 1433 1433 1434
1419 1418 1417 1416 1415 1414 1414 1414 1414 1413 1413 1413 1413 1412 1412 1412 1412 1412 1412 1412 1413 1413 1413 1414 1414 1416 1417 1417 1417 1419 1420 1420 1420 1420 1420 1421 1420 1420 1420 1420 1421 1422 1422 1422 1421 1420 1422 1425 1425 1424 1425 1426 1426 1426 1427 1427 1427 1427 1427 1427 1427 1427 1427 1427 1427 1427 1427 1427 1428 1428 1428 1428 1428 1428
1416 1415 1414 1413 1412 1411 1411 1411 1411 1410 1409 1408 1407 1407 1406 1406 1407 1407 1407 1408 1409 1409 1410 1410 1411 1412 1413 1414 1414 1415 1417 1417 1417 1418 1418 1418 1418 1417 1417 1416 1417 1418 1419 1420 1418 1416 1418 1421 1420 1419 1420 1421 1420 1420 1421 1422 1422 1423 1423 1423 1423 1423 1423 1423 1423 1423 1423 1423 1423 1424 1424 1424 1423 1423
1412 1412 1411 1410 1410 1409 1409 1408 1407 1405 1404 1403 1402 1402 1401 1401 1401 1402 1403 1404 1404 1405 1405 1406 1406 1407 1408 1409 1410 1411 1412 1413 1414 1415 1414 1414 1414 1413 1412 1413 1413 1413 1415 1416 1415 1412 1413 1415 1415 1413 1415 1415 1414 1414 1415 1416 1417 1418 1418 1418 1419 1419 1420 1420 1419 1419 1419 1419 1419 1419 1419 1419 1419 1419
1409 1408 1408 1407 1407 1406 1406 1404 1403 1401 1400 1399 1398 1397 1397 1397 1397 1398 1399 1400 1400 1401 1401 1401 1402 1402 1403 1404 1404 1405 1407 1408 1409 1409 1408 1409 1410 1409 1408 1408 1408 1409 1409 1411 1412 1409 1408 1410 1410 1409 1409 1410 1408 1408 1409 1410 1412 1412 1413 1413 1414 1414 1415 1415 1415 1415 1415 1415 1415 1415 1415 1415 1414 1414
1405 1404 1404 1404 1404 1403 1402 1400 1399 1398 1397 1395 1394 1394 1393 1393 1394 1395 1396 1396 1396 1397 1397 1397 1398 1399 1399 1400 1400 1401 1402 1404 1405 1404 1403 1404 1406 1405 1404 1405 1405 1404 1404 1406 1408 1406 1403 1405 1406 1404 1404 1403 1402 1403 1404 1405 1406 1406 1407 1407 1408 1409 1409 1409 1410 1410 1410 1410 1410 1410 1410 1410 1410 1409
1402 1402 1401 1400 1400 1399 1398 1397 1396 1395 1394 1392 1391 1390 1389 1389 1390 1391 1392 1392 1393 1393 1393 1394 1395 1396 1396 1396 1396 1397 1398 1399 1400 1400 1399 1401 1402 1400 1400 1401 1401 1400 1398 1401 1404 1401 1398 1400 1401 1400 1399 1398 1396 1398 1399 1399 1400 1400 1401 1401 1402 1402 1403 1404 1404 1404 1405 1405 1405 1406 1406 1406 1405 1405
1400 1399 1398 1397 1396 1396 1395 1394 1392 1391 1390 1388 1387 1387 1386 1386 1386 1386 1387 1389 1390 1390 1390 1391 1391 1391 1392 1393 1393 1393 1394 1395 1396 1396 1396 1397 1398 1397 1396 1397 1397 1395 1393 1397 1400 1397 1395 1395 1395 1395 1396 1394 1392 1393 1394 1394 1394 1394 1395 1396 1396 1397 1398 1398 1399 1399 1399 1400 1401 1401 1401 1401 1400 1400
1398 1397 1396 1395 1394 1393 1392 1391 1389 1387 1386 1385 1384 1384 1383 1383 1383 1383 1384 1385 1386 1387 1386 1387 1387 1387 1388 1389 1389 1390 1391 1391 1392 1392 1392 1392 1393 1393 1392 1392 1392 1390 1389 1393 1396 1394 1391 1391 1391 1391 1391 1390 1389 1389 1389 1389 1389 1390 1390 1390 1391 1392 1393 1393 1394 1394 1395 1395 1395 1395 1396 1396 1396 1396
1398 1397 1395 1394 1392 1391 1389 1388 1387 1384 1383 1382 1381 1381 1380 1380 1380 1381 1381 1382 1382 1382 1382 1382 1382 1383 1384 1385 1386 1386 1387 1388 1388 1388 1388 1388 1387 1387 1387 1387 1387 1386 1386 1389 1391 1390 1387 1386 1386 1386 1386 1385 1385 1386 1386 1385 1385 1386 1386 1386 1386 1387 1388 1388 1389 1390 1390 1390 1390 1390 1391 1391 1392 1392
1398 1397 1395 1393 1390 1388 1387 1385 1384 1382 1380 1379 1378 1377 1377 1377 1377 1377 1377 1377 1377 1377 1378 1378 1378 1379 1380 1380 1381 1382 1383 1384 1384 1385 1385 1384 1383 1383 1383 1383 1382 1381 1381 1384 1386 1384 1383 1382 1382 1382 1382 1381 1381 1382 1382 1381 1381 1382 1382 1382 1382 1383 1384 1384 1384 1385 1385 1385 1385 1386 1387 1387 1387 1388
1398 1396 1394 1391 1389 1386 1384 1383 1381 1379 1378 1376 1375 1374 1374 1373 1373 1373 1373 1373 1374 1374 1375 1375 1375 1375 1376 1377 1377 1378 1379 1379 1380 1380 1381 1381 1380 1379 1379 1378 1378 1377 1377 1380 1381 1380 1379 1379 1378 1378 1379 1379 1378 1377 1377 1377 1378 1378 1378 1378 1378 1379 1379 1379 1379 1380 1381 1381 1381 1382 1382 1382 1383 1383
1399 1396 1393 1390 1388 1385 1383 1381 1379 1378 1376 1374 1372 1371 1370 1370 1369 1369 1370 1370 1370 1370 1371 1370 1370 1371 1373 1373 1373 1373 1374 1374 1375 1375 1375 1376 1377 1377 1375 1375 1375 1375 1375 1376 1377 1376 1375 1374 1373 1373 1375 1375 1374 1373 1374 1374 1374 1374 1374 1374 1374 1374 1373 1374 1374 1375 1377 1377 1377 1378 1378 1379 1380 1379
1399 1397 1394 1391 1388 1385 1383 1381 1379 1377 1375 1373 1371 1369 1368 1367 1366 1366 1366 1366 1366 1366 1366 1366 1367 1368 1369 1370 1369 1370 1370 1371 1371 1370 1370 1371 1372 1373 1373 1372 1373 1373 1372 1372 1372 1371 1371 1370 1369 1370 1371 1371 1371 1370 1371 1371 1370 1370 1370 1370 1369 1368 1368 1368 1369 1371 1372 1373 1374 1375 1376 1377 1377 1378
1400 1398 1395 1392 1389 1387 1385 1383 1380 1378 1376 1374 1371 1369 1368 1366 1365 1364 1364 1363 1363 1363 1363 1363 1364 1365 1366 1367 1367 1368 1368 1368 1367 1367 1367 1368 1368 1368 1369 1369 1369 1369 1369 1368 1368 1367 1367 1367 1367 1366 1367 1367 1367 1367 1368 1368 1367 1366 1366 1366 1366 1365 1364 1364 1365 1367 1368 1370 1371 1372 1373 1374 1375 1376
1401 1399 1396 1393 1391 1389 1386 1384 1382 1379 1377 1375 1372 1370 1368 1367 1365 1364 1364 1363 1362 1361 1361 1361 1361 1362 1363 1364 1365 1365 1365 1365 1365 1364 1364 1365 1365 1365 1366 1366 1366 1365 1365 1365 1364 1364 1363 1364 1363 1363 1363 1363 1363 1363 1364 1364 1364 1364 1364 1364 1364 1364 1364 1364 1364 1365 1366 1367 1368 1370 1371 1372 1373 1373
1402 1399 1397 1395 1392 1390 1388 1385 1383 1381 1379 1376 1374 1372 1370 1368 1367 1365 1364 1363 1362 1362 1361 1361 1361 1361 1361 1361 1362 1363 1363 1362 1362 1362 1362 1362 1362 1363 1363 1364 1364 1363 1363 1362 1362 1361 1360 1360 1360 1360 1359 1359 1360 1360 1361 1361 1362 1362 1362 1363 1362 1362 1363 1364 1364 1365 1366 1366 1366 1368 1369 1370 1370 1371
1403 1400 1398 1396 1394 1392 1389 1387 1385 1383 1381 1379 1376 1374 1372 1370 1369 1368 1367 1366 1365 1364 1362 1362 1361 1361 1361 1361 1361 1361 1361 1361 1361 1361 1361 1361 1361 1361 1361 1362 1362 1361 1361 1361 1360 1359 1358 1358 1358 1357 1357 1357 1358 1358 1359 1360 1360 1360 1360 1360 1360 1360 1361 1361 1362 1364 1365 1364 1364 1365 1367 1367 1368 1369
1404 1402 1400 1398 1396 1394 1392 1389 1387 1385 1383 1381 1379 1377 1375 1373 1372 1371 1370 1369 1368 1366 1365 1363 1362 1361 1361 1361 1361 1361 1361 1361 1361 1360 1360 1360 1360 1360 1360 1360 1360 1360 1360 1360 1360 1359 1358 1357 1356 1356 1356 1356 1356 1357 1358 1359 1359 1360 1359 1359 1359 1360 1360 1360 1361 1363 1363 1363 1363 1364 1365 1365 1366 1367
1405 1403 1402 1400 1398 1396 1394 1392 1389 1387 1385 1383 1382 1380 1378 1376 1375 1375 1374 1372 1371 1369 1368 1366 1365 1363 1362 1362 1361 1361 1361 1361 1360 1360 1360 1360 1360 1360 1360 1360 1360 1360 1360 1360 1359 1359 1358 1357 1356 1356 1356 1355 1355 1356 1358 1359 1360 1360 1360 1360 1360 1361 1362 1362 1362 1362 1362 1362 1362 1363 1363 1364 1366 1367
1407 1405 1404 1402 1400 1398 1396 1394 1392 1390 1388 1386 1385 1382 1380 1379 1378 1378 1377 1376 1375 1373 1371 1369 1368 1366 1365 1364 1363 1362 1362 1362 1361 1361 1360 1361 1361 1361 1361 1361 1361 1360 1360 1360 1360 1360 1358 1358 1357 1357 1356 1355 1355 1357 1359 1360 1361 1360 1360 1361 1361 1362 1362 1363 1363 1362 1362 1363 1363 1363 1363 1364 1365 1366
1409 1407 1405 1404 1402 1400 1398 1396 1395 1393 1391 1389 1387 1385 1384 1382 1382 1381 1380 1379 1377 1376 1374 1372 1371 1369 1368 1367 1366 1364 1364 1363 1363 1362 1361 1361 1361 1362 1362 1362 1362 1361 1361 1361 1361 1361 1360 1359 1358 1358 1357 1357 1358 1359 1360 1360 1361 1361 1361 1361 1361 1362 1363 1363 1364 1364 1364 1364 1364 1364 1364 1364 1364 1365
1410 1409 1407 1405 1404 1402 1400 1398 1397 1395 1394 1392 1390 1389 1387 1387 1386 1384 1383 1381 1380 1379 1377 1375 1373 1372 1371 1370 1369 1368 1367 1366 1365 1364 1363 1363 1363 1363 1364 1364 1364 1364 1363 1362 1362 1363 1363 1361 1360 1360 1360 1360 1360 1361 1362 1361 1361 1361 1361 1360 1361 1362 1364 1365 1366 1367 1366 1366 1365 1365 1364 1364 1364 1365
1412 1410 1409 1407 1406 1404 1402 1401 1399 1398 1396 1395 1393 1392 1391 1390 1389 1387 1386 1384 1382 1381 1379 1378 1376 1375 1373 1372 1372 1372 1371 1370 1369 1367 1367 1366 1365 1365 1366 1366 1366 1366 1365 1364 1365 1366 1366 1365 1364 1363 1363 1362 1362 1362 1363 1362 1362 1362 1362 1362 1363 1364 1365 1366 1367 1367 1367 1366 1365 1364 1364 1364 1364 1364
1414 1412 1411 1410 1408 1406 1405 1403 1402 1400 1398 1397 1396 1395 1394 1393 1392 1390 1388 1387 1385 1383 1382 1380 1379 1378 1376 1375 1374 1374 1373 1373 1372 1371 1370 1369 1368 1369 1370 1370 1369 1368 1368 1368 1368 1369 1369 1369 1367 1366 1365 1364 1364 1364 1363 1363 1364 1363 1363 1364 1364 1365 1365 1367 1368 1368 1367 1367 1366 1365 1364 1364 1364 1364
1415 1414 1413 1411 1410 1409 1407 1406 1404 1402 1401 1399 1398 1397 1397 1396 1395 1393 1391 1389 1388 1386 1385 1383 1381 1380 1379 1378 1377 1376 1375 1375 1375 1374 1374 1373 1372 1373 1373 1372 1372 1371 1371 1371 1371 1371 1371 1371 1369 1368 1367 1366 1365 1365 1364 1365 1365 1365 1365 1365 1365 1365 1366 1367 1368 1368 1368 1367 1367 1366 1366 1366 1365 1365
1416 1415 1414 1413 1412 1410 1409 1408 1406 1405 1403 1402 1401 1399 1398 1397 1397 1395 1393 1391 1390 1389 1388 1386 1384 1382 1381 1381 1379 1378 1378 1377 1377 1377 1377 1376 1376 1375 1375 1374 1374 1374 1374 1373 1373 1372 1372 1371 1370 1369 1368 1367 1366 1366 1366 1366 1367 1366 1366 1366 1365 1365 1366 1368 1369 1369 1369 1368 1368 1368 1368 1368 1367 1367
1417 1416 1415 1414 1413 1412 1411 1409 1408 1407 1405 1404 1402 1401 1400 1398 1397 1396 1395 1393 1393 1392 1391 1389 1387 1385 1383 1383 1382 1381 1380 1380 1380 1380 1379 1378 1377 1377 1377 1376 1376 1376 1376 1375 1374 1373 1372 1371 1370 1369 1368 1367 1367 1367 1367 1367 1367 1367 1367 1367 1367 1366 1367 1369 1369 1370 1370 1369 1369 1369 1369 1369 1368 1368
1419 1417 1416 1415 1414 1413 1412 1411 1409 1408 1407 1405 1404 1402 1401 1399 1398 1397 1396 1395 1395 1394 1393 1391 1389 1387 1386 1384 1384 1383 1383 1382 1382 1381 1380 1379 1379 1379 1379 1379 1378 1377 1377 1376 1375 1374 1373 1372 1370 1369 1368 1368 1368 1369 1369 1368 1368 1368 1368 1368 1368 1368 1369 1370 1370 1371 1370 1369 1369 1369 1368 1367 1367 1367